Santa Ynez, CA

8:29 PM PDT on September 30, 2016 (GMT -0700)
Santa Ynez

Weather History for KIZA - August, 2013

Change the Weather History Date:

Wednesday, August 7, 2013

  Actual Average (KSBA) Record (KSBA)
Temperature  
Mean Temperature 66 °F 66 °F  
Max Temperature 78 °F 74 °F 86 °F (1983)
Min Temperature 53 °F 58 °F 50 °F (1944)
Degree Days  
Heating Degree Days 0 1  
Month to date heating degree days 7  
Since 1 June heating degree days 124  
Since 1 July heating degree days 34  
Cooling Degree Days 0 2  
Month to date cooling degree days 14  
Year to date cooling degree days 86  
Since 1 June cooling degree days 72  
Growing Degree Days 16 (Base 50)    
Moisture  
Dew Point 51 °F    
Average Humidity 73    
Maximum Humidity 94    
Minimum Humidity 36    
Precipitation  
Precipitation 0.00 in 0.01 in 0.01 in (2000)
Month to date precipitation 0.02  
Year to date precipitation 12.10  
Sea Level Pressure  
Sea Level Pressure 30.06 in    
Wind  
Wind Speed 4 mph (WNW)    
Max Wind Speed 18 mph    
Max Gust Speed 23 mph    
Visibility 10 miles    
Events      
T = Trace of Precipitation, MM = Missing Value Source: NWS Daily Summary

Daily Weather History Graph

Daily Weather History Graph

Search for Another Location

Airport or City:

Trip Planner

Search our weather history database for the weather conditions in past years. The results will help you decide how hot, cold, wet, or windy it might be!

Date:

Astronomy

Aug. 07, 2013 Rise Set
Actual Time 6:15 AM PDT 7:56 PM PDT
Civil Twilight 5:48 AM PDT 8:23 PM PDT
Nautical Twilight 5:15 AM PDT 8:56 PM PDT
Astronomical Twilight 4:40 AM PDT 9:30 PM PDT
Moon 7:03 AM PDT (8/7) 8:12 PM PDT (8/7)
Length of Visible Light 14h 35m
Length of Day
13h 41m
New Moon, 1% of the Moon is Illuminated
Aug 7
New Moon
Aug 14
First Quarter
Aug 20
Full
Aug 28
Last Quarter
Sep 5
New

Hourly Weather History & Observations

Time (PDT) Temp. Dew Point Humidity Pressure Visibility Wind Dir Wind Speed Gust Speed Precip Events Conditions
12:15 AM 53.6 °F 50.0 °F 88% 30.08 in 10.0 mi Calm Calm - N/A   Overcast
12:35 AM 55.4 °F 51.8 °F 88% 30.08 in 10.0 mi West 4.6 mph - N/A   Overcast
12:55 AM 53.6 °F 51.8 °F 94% 30.08 in 10.0 mi West 3.5 mph - N/A   Overcast
1:15 AM 53.6 °F 51.8 °F 94% 30.08 in 10.0 mi West 3.5 mph - N/A   Overcast
1:35 AM 53.6 °F 51.8 °F 94% 30.08 in 10.0 mi NNW 3.5 mph - N/A   Overcast
1:55 AM 53.6 °F 51.8 °F 94% 30.08 in 10.0 mi Calm Calm - N/A   Overcast
2:15 AM 53.6 °F 50.0 °F 88% 30.07 in 10.0 mi Calm Calm - N/A   Overcast
2:35 AM 53.6 °F 51.8 °F 94% 30.07 in 10.0 mi Calm Calm - N/A   Overcast
2:55 AM 53.6 °F 51.8 °F 94% 30.07 in 10.0 mi Calm Calm - N/A   Overcast
3:15 AM 53.6 °F 50.0 °F 88% 30.06 in 10.0 mi Calm Calm - N/A   Overcast
3:35 AM 53.6 °F 50.0 °F 88% 30.06 in 10.0 mi North 3.5 mph - N/A   Overcast
3:55 AM 53.6 °F 50.0 °F 88% 30.06 in 10.0 mi Calm Calm - N/A   Overcast
4:15 AM 53.6 °F 50.0 °F 88% 30.06 in 10.0 mi Calm Calm - N/A   Overcast
4:35 AM 53.6 °F 50.0 °F 88% 30.05 in 10.0 mi Calm Calm - N/A   Overcast
4:55 AM 53.6 °F 50.0 °F 88% 30.05 in 10.0 mi Calm Calm - N/A   Overcast
5:15 AM 53.6 °F 50.0 °F 88% 30.06 in 10.0 mi Calm Calm - N/A   Overcast
5:35 AM 53.6 °F 50.0 °F 88% 30.06 in 10.0 mi Calm Calm - N/A   Overcast
5:55 AM 53.6 °F 50.0 °F 88% 30.06 in 10.0 mi Calm Calm - N/A   Overcast
6:15 AM 53.6 °F 50.0 °F 88% 30.06 in 10.0 mi NW 3.5 mph - N/A   Overcast
6:35 AM 53.6 °F 50.0 °F 88% 30.07 in 10.0 mi NNW 3.5 mph - N/A   Overcast
6:55 AM 53.6 °F 50.0 °F 88% 30.08 in 10.0 mi North 3.5 mph - N/A   Overcast
7:15 AM 53.6 °F 50.0 °F 88% 30.09 in 10.0 mi NW 3.5 mph - N/A   Overcast
7:35 AM 53.6 °F 50.0 °F 88% 30.10 in 7.0 mi NNW 4.6 mph - N/A   Overcast
7:55 AM 53.6 °F 50.0 °F 88% 30.10 in 7.0 mi Calm Calm - N/A   Overcast
8:15 AM 53.6 °F 50.0 °F 88% 30.11 in 10.0 mi Calm Calm - N/A   Overcast
8:35 AM 53.6 °F 50.0 °F 88% 30.11 in 10.0 mi North 3.5 mph - N/A   Overcast
8:55 AM 53.6 °F 50.0 °F 88% 30.12 in 10.0 mi NNE 3.5 mph - N/A   Overcast
9:15 AM 53.6 °F 50.0 °F 88% 30.12 in 10.0 mi Calm Calm - N/A   Overcast
9:35 AM 53.6 °F 50.0 °F 88% 30.12 in 10.0 mi North 3.5 mph - N/A   Overcast
9:55 AM 55.4 °F 50.0 °F 82% 30.12 in 10.0 mi West 5.8 mph - N/A   Overcast
10:15 AM 57.2 °F 50.0 °F 77% 30.12 in 10.0 mi WNW 4.6 mph - N/A   Overcast
10:35 AM 59.0 °F 50.0 °F 72% 30.12 in 10.0 mi NNW 4.6 mph - N/A   Mostly Cloudy
10:55 AM 60.8 °F 50.0 °F 68% 30.12 in 10.0 mi NW 6.9 mph - N/A   Scattered Clouds
11:15 AM 64.4 °F 50.0 °F 59% 30.11 in 10.0 mi WNW 3.5 mph - N/A   Clear
11:35 AM 66.2 °F 50.0 °F 56% 30.10 in 10.0 mi West 3.5 mph 9.2 mph N/A   Clear
11:55 AM 68.0 °F 50.0 °F 52% 30.10 in 10.0 mi West 4.6 mph - N/A   Clear
12:15 PM 69.8 °F 50.0 °F 49% 30.09 in 10.0 mi WSW 4.6 mph - N/A   Clear
12:35 PM 71.6 °F 50.0 °F 46% 30.08 in 10.0 mi WSW 5.8 mph - N/A   Clear
12:55 PM 73.4 °F 50.0 °F 44% 30.07 in 10.0 mi WSW 8.1 mph - N/A   Clear
1:15 PM 75.2 °F 51.8 °F 44% 30.07 in 10.0 mi WSW 5.8 mph - N/A   Clear
1:35 PM 77.0 °F 50.0 °F 39% 30.06 in 10.0 mi West 11.5 mph 16.1 mph N/A   Clear
1:55 PM 78.8 °F 50.0 °F 36% 30.06 in 10.0 mi West 12.7 mph 17.3 mph N/A   Clear
2:15 PM 78.8 °F 50.0 °F 36% 30.05 in 10.0 mi West 15.0 mph - N/A   Clear
2:35 PM 77.0 °F 50.0 °F 39% 30.05 in 10.0 mi West 16.1 mph - N/A   Clear
2:55 PM 77.0 °F 50.0 °F 39% 30.03 in 10.0 mi West 16.1 mph - N/A   Clear
3:15 PM 77.0 °F 50.0 °F 39% 30.03 in 10.0 mi West 17.3 mph 21.9 mph N/A   Clear
3:35 PM 77.0 °F 50.0 °F 39% 30.02 in 10.0 mi West 16.1 mph - N/A   Clear
3:55 PM 75.2 °F 51.8 °F 44% 30.02 in 10.0 mi West 15.0 mph - N/A   Clear
4:15 PM 75.2 °F 51.8 °F 44% 30.02 in 10.0 mi West 17.3 mph 23.0 mph N/A   Clear
4:35 PM 75.2 °F 51.8 °F 44% 30.02 in 10.0 mi West 16.1 mph 21.9 mph N/A   Clear
4:55 PM 73.4 °F 51.8 °F 47% 30.02 in 10.0 mi West 18.4 mph - N/A   Clear
5:15 PM 71.6 °F 51.8 °F 50% 30.01 in 10.0 mi WSW 17.3 mph - N/A   Clear
5:35 PM 71.6 °F 51.8 °F 50% 30.02 in 10.0 mi West 16.1 mph - N/A   Clear
5:55 PM 69.8 °F 51.8 °F 53% 30.01 in 10.0 mi West 16.1 mph - N/A   Clear
6:15 PM 68.0 °F 51.8 °F 56% 30.02 in 10.0 mi West 13.8 mph - N/A   Clear
6:35 PM 68.0 °F 51.8 °F 56% 30.02 in 10.0 mi West 13.8 mph - N/A   Clear
6:55 PM 64.4 °F 51.8 °F 64% 30.02 in 10.0 mi West 12.7 mph - N/A   Clear
7:15 PM 64.4 °F 51.8 °F 64% 30.03 in 10.0 mi West 12.7 mph - N/A   Clear
7:35 PM 62.6 °F 51.8 °F 68% 30.03 in 10.0 mi West 12.7 mph - N/A   Clear
7:55 PM 60.8 °F 51.8 °F 72% 30.03 in 10.0 mi West 9.2 mph - N/A   Clear
8:15 PM 59.0 °F 51.8 °F 77% 30.04 in 10.0 mi West 9.2 mph - N/A   Clear
8:35 PM 59.0 °F 51.8 °F 77% 30.05 in 10.0 mi West 9.2 mph - N/A   Clear
8:55 PM 57.2 °F 51.8 °F 82% 30.05 in 10.0 mi WNW 6.9 mph - N/A   Clear
9:15 PM 55.4 °F 51.8 °F 88% 30.05 in 10.0 mi WNW 5.8 mph - N/A   Clear
9:35 PM 55.4 °F 51.8 °F 88% 30.06 in 10.0 mi WNW 6.9 mph - N/A   Clear
9:55 PM 55.4 °F 51.8 °F 88% 30.06 in 10.0 mi West 3.5 mph - N/A   Clear
10:15 PM 55.4 °F 50.0 °F 82% 30.06 in 10.0 mi Calm Calm - N/A   Clear
10:35 PM 53.6 °F 50.0 °F 88% 30.06 in 10.0 mi Calm Calm - N/A   Clear
10:55 PM 53.6 °F 50.0 °F 88% 30.06 in 10.0 mi Calm Calm - N/A   Clear
11:15 PM 53.6 °F 50.0 °F 88% 30.06 in 10.0 mi Calm Calm - N/A   Scattered Clouds
11:35 PM 55.4 °F 51.8 °F 88% 30.06 in 10.0 mi Calm Calm - N/A   Overcast
11:55 PM 55.4 °F 51.8 °F 88% 30.05 in 10.0 mi WSW 4.6 mph - N/A   Overcast